+ View the NASA Portal
+ Center for Near-Earth Object Studies
IMPORTANT:
The SSD Announcement email list is now available. Major changes are coming in the near future, including possible hostname and/or URL changes. To be notified of such changes, subscribe to this email list.
Please visit
this page
for more details.
Don't show this message again
JPL Small-Body Database Browser
Search:
[
help
]
48265 (2001 YZ15)
Classification:
Outer Main-belt Asteroid
SPK-ID:
2048265
[
Ephemeris
|
Orbit Diagram
|
Orbital Elements
|
Mission Design
|
Physical Parameters
|
Discovery Circumstances
|
Close-Approach Data
]
[ show orbit diagram ]
Orbital Elements at Epoch 2458600.5 (2019-Apr-27.0) TDB
Reference:
JPL 17
(heliocentric ecliptic J2000)
Element
Value
Uncertainty (1-sigma)
Units
e
.1422433381716577
3.892e-08
a
3.247124103019357
2.7949e-08
au
q
2.785242331148233
1.2491e-07
au
i
2.178408854268618
4.8002e-06
deg
node
72.12357730224286
0.00012234
deg
peri
203.5655660246874
0.00012367
deg
M
159.2795330853831
1.7106e-05
deg
t
p
2457654.907037974538
(2016-Sep-23.40703797)
0.00010373
TDB
period
2137.207836657111
5.85
2.7594e-05
7.555e-08
d
yr
n
.168444076343595
2.1748e-09
deg/d
Q
3.70900587489048
3.1925e-08
au
Orbit Determination Parameters
# obs. used (total)
676
data-arc span
8889 days (24.34 yr)
first obs. used
1994-10-09
last obs. used
2019-02-09
planetary ephem.
DE431
SB-pert. ephem.
SB431-N16
condition code
0
norm. resid. RMS
.59644
source
ORB
producer
Otto Matic
solution date
2019-Jul-13 02:45:42
Additional Information
Earth MOID
= 1.76853 au
Jupiter MOID
= 1.40945 au
T_jup
= 3.165
[ show covariance matrix ]
[
Ephemeris
|
Orbit Diagram
|
Orbital Elements
|
Mission Design
|
Physical Parameters
|
Discovery Circumstances
|
Close-Approach Data
]
Physical Parameter Table
Parameter
Symbol
Value
Units
Sigma
Reference
Notes
absolute magnitude
H
14.5
n/a
MPO432040
diameter
diameter
6.105
km
0.171
urn:nasa:pds:neowise_diameters_albedos::2.0[mainbelt] (http://adsabs.harvard.edu/abs/2011ApJ...741...68M)
geometric albedo
albedo
0.047
0.009
urn:nasa:pds:neowise_diameters_albedos::2.0[mainbelt] (http://adsabs.harvard.edu/abs/2011ApJ...741...68M)
48265 (2001 YZ15)
Discovered 2001-Dec-17 by LINEAR at Socorro
Reference:
20020921/Numbers.arc
Last Updated:
2004-04-19
[ hide close-approach data ]
Close-Approach Data
...sorted by
Date/Time (TDB)
Date/Time (TDB)
Time Uncertainty
(days_HH:MM)
Body
Nominal Distance (au)
Minimum Distance (au)
Maximum Distance (au)
V-relative (km/s)
V-infinity (km/s)
JD (TDB)
Time Uncertainty (minutes)
Semi-major axis (km)
Semi-minor axis (km)
range-LOV angle (deg)
N-sigma
BP
Orbit Ref.
Reference
Modified
1991-Feb-23 02:40
< 00:01
Jupiter
1.79083406322888
1.79083328098018
1.79083484547707
2.09839341934052
1.85938211336249
2448310.610770755
0.984096788686063
60.7664483261681
7.97307755637673
-84.5550994548611
1700637.34831271
T
17
CATAB v2.0e-lin.ifort 2019-Jul-13 02:45:45
2019-Jul-13 02:45
2002-Jun-07 20:35
< 00:01
Jupiter
1.59334756528087
1.59334702490713
1.5933481056537
1.48939744292287
1.07475860584238
2452433.357346731
0.565490742867894
126.520693940375
86.2479248733249
-27.5173122221291
1815854.13771308
T
17
CATAB v2.0e-lin.ifort 2019-Jul-13 02:45:45
2019-Jul-13 02:45
2013-Nov-03 01:21
< 00:01
Jupiter
1.47010930501276
1.47010889017385
1.47010971985125
1.19810766210886
0.532105316211808
2456599.556483674
0.310286187583829
1075.87237883491
289.112538453433
-11.913768208101
1991433.58413233
T
17
CATAB v2.0e-lin.ifort 2019-Jul-13 02:45:45
2019-Jul-13 02:45
2025-Apr-30 21:57
< 00:01
Jupiter
1.41325293628903
1.41325253778463
1.41325333485897
1.11069900846808
0.186995542519456
2460796.414725233
0.712933068183351
25881.1937686291
1155.21343589825
-5.74447752546654
3526143.36124993
T
17
CATAB v2.0e-lin.ifort 2019-Jul-13 02:45:45
2019-Jul-13 02:45
2036-Nov-02 13:57
00:01
Jupiter
1.40905458857529
1.4090540870172
1.40905509013235
1.15787733337519
0.372052985005472
2465000.080951600
1.42929544301368
4020.04122529444
498.812747199341
-5.17765225566803
1531662.22579949
T
17
CATAB v2.0e-lin.ifort 2019-Jul-13 02:45:45
2019-Jul-13 02:45
2048-Apr-12 13:30
00:02
Jupiter
1.46488363184442
1.46488261000217
1.46488465368533
1.38876386863497
0.878765323085297
2469179.062758826
2.41410985094805
529.950281485882
165.611908085426
16.6492882461487
1028671.2050035
T
17
CATAB v2.0e-lin.ifort 2019-Jul-13 02:45:45
2019-Jul-13 02:45
2059-Aug-04 23:36
00:04
Jupiter
1.60570156764177
1.60569964081027
1.60570349447682
1.97516819243673
1.6870894407597
2473310.483424917
3.54387827409016
225.539529173834
27.3811871851973
74.9448753984338
1514703.60628028
T
17
CATAB v2.0e-lin.ifort 2019-Jul-13 02:45:45
2019-Jul-13 02:45
2070-Oct-06 14:50
00:04
Jupiter
1.82900197303637
1.82899931760108
1.82900462847841
3.06410840599551
2.90904581049143
2477391.118367906
4.39776335208688
231.186132872101
18.0055575920101
-69.1753419854972
2175668.28364818
T
17
CATAB v2.0e-lin.ifort 2019-Jul-13 02:45:45
2019-Jul-13 02:45
2182-Jan-27 04:32
00:05
Jupiter
1.99052157033412
1.99051831995704
1.99052482071302
2.73234854868648
2.57190060834025
2518045.689231339
5.31741225180761
203.60378338064
25.2933783672774
-62.4700535634476
1430911.76609115
T
17
CATAB v2.0e-lin.ifort 2019-Jul-13 02:45:45
2019-Jul-13 02:45
2193-Apr-24 08:43
00:05
Jupiter
1.77648680554446
1.7764838471535
1.77648976392966
1.94734282679367
1.68480007196703
2522150.862857655
5.0633607990243
143.235528776914
24.098599169541
81.1386168490178
838956.129258625
T
17
CATAB v2.0e-lin.ifort 2019-Jul-13 02:45:45
2019-Jul-13 02:45
Alternate Designations
2001 YZ15
= 1998 HF46 = 2000 SB240
[
Ephemeris
|
Orbit Diagram
|
Orbital Elements
|
Mission Design
|
Physical Parameters
|
Discovery Circumstances
|
Close-Approach Data
]
2019-Dec-14 08:27 UT
(server date/time)
Site Manager:
Ryan S. Park
Webmaster
:
Alan B. Chamberlin